• In Moldova, Republic
  • List of Countries
  • For 7 days
  • Water Temperature
  • Satellite Maps
  • Weather Map
  • Weather Widgets
  • user-avatar
    Login

    Hourly Weather Ganja

    Today, 25 January, Wednesday

    Time Temperature Precipitation Wind Pressure Humidity
    00:00 -2°C° 0 mm 2 mps 730 mmHg 67%
    01:00 -2°C° 0 mm 2 mps 730 mmHg 65%
    02:00 -2°C° 0 mm 2 mps 729 mmHg 63%
    03:00 -1°C° 0 mm 3 mps 728 mmHg 61%
    04:00 -1°C° 0 mm 3 mps 728 mmHg 61%
    05:00 -1°C° 0 mm 3 mps 727 mmHg 61%
    06:00 -1°C° 0 mm 3 mps 727 mmHg 60%
    07:00 0°C° 0 mm 3 mps 726 mmHg 58%
    08:00 +1°C° 0 mm 3 mps 726 mmHg 56%
    09:00 +3°C° 0 mm 3 mps 726 mmHg 53%
    10:00 +4°C° 0 mm 3 mps 725 mmHg 49%
    11:00 +7°C° 0 mm 3 mps 724 mmHg 46%
    12:00 +8°C° 0 mm 3 mps 723 mmHg 42%
    13:00 +8°C° 0 mm 3 mps 723 mmHg 42%
    14:00 +8°C° 0 mm 3 mps 722 mmHg 43%
    15:00 +8°C° 0 mm 2 mps 722 mmHg 43%
    16:00 +7°C° 0 mm 2 mps 722 mmHg 45%
    17:00 +6°C° 0 mm 2 mps 722 mmHg 48%
    18:00 +5°C° 0 mm 2 mps 722 mmHg 50%
    19:00 +4°C° 0 mm 2 mps 722 mmHg 52%
    20:00 +4°C° 0 mm 2 mps 722 mmHg 54%
    21:00 +4°C° 0 mm 2 mps 721 mmHg 56%
    22:00 +4°C° 0 mm 2 mps 721 mmHg 57%
    23:00 +4°C° 0 mm 2 mps 721 mmHg 59%

    Tomorrow, 26 January, Thursday

    Time Temperature Precipitation Wind Pressure Humidity
    00:00 +3°C° 0 mm 2 mps 721 mmHg 61%
    01:00 +3°C° 0 mm 2 mps 721 mmHg 62%
    02:00 +3°C° 0 mm 2 mps 721 mmHg 63%
    03:00 +3°C° 0 mm 2 mps 721 mmHg 65%
    04:00 +1°C° 0 mm 3 mps 721 mmHg 66%
    05:00 +1°C° 0 mm 3 mps 721 mmHg 68%
    06:00 +1°C° 0 mm 3 mps 721 mmHg 69%
    07:00 +2°C° 0 mm 3 mps 721 mmHg 67%
    08:00 +3°C° 0 mm 3 mps 722 mmHg 65%
    09:00 +3°C° 0 mm 3 mps 722 mmHg 63%
    10:00 +5°C° 0 mm 3 mps 722 mmHg 60%
    11:00 +7°C° 0 mm 3 mps 721 mmHg 57%
    12:00 +8°C° 0 mm 3 mps 721 mmHg 54%
    13:00 +8°C° 0 mm 3 mps 721 mmHg 55%
    14:00 +8°C° 0 mm 3 mps 721 mmHg 55%
    15:00 +8°C° 0 mm 3 mps 721 mmHg 56%
    16:00 +7°C° 0 mm 3 mps 721 mmHg 60%
    17:00 +5°C° 0 mm 2 mps 721 mmHg 64%
    18:00 +4°C° 0 mm 2 mps 721 mmHg 68%
    19:00 +4°C° 0 mm 2 mps 722 mmHg 70%
    20:00 +3°C° 0 mm 2 mps 722 mmHg 72%
    21:00 +2°C° 0 mm 3 mps 722 mmHg 73%
    22:00 +3°C° 0.1 mm 2 mps 723 mmHg 75%
    23:00 +3°C° 0.1 mm 2 mps 723 mmHg 77%

    Day after tomorrow, 27 January, Friday

    Time Temperature Precipitation Wind Pressure Humidity
    00:00 +3°C° 0.1 mm 2 mps 723 mmHg 79%
    01:00 +1°C° 0.2 mm 3 mps 723 mmHg 79%
    02:00 +1°C° 0.2 mm 3 mps 723 mmHg 79%
    03:00 +1°C° 0.2 mm 3 mps 724 mmHg 79%
    04:00 +1°C° 0.1 mm 3 mps 724 mmHg 78%
    05:00 0°C° 0.1 mm 3 mps 724 mmHg 77%
    06:00 0°C° 0.1 mm 3 mps 724 mmHg 77%
    07:00 0°C° 0.2 mm 3 mps 725 mmHg 74%
    08:00 +1°C° 0.2 mm 2 mps 725 mmHg 70%
    09:00 +2°C° 0.2 mm 2 mps 725 mmHg 67%
    10:00 +2°C° 0.3 mm 2 mps 725 mmHg 68%
    11:00 +2°C° 0.3 mm 2 mps 725 mmHg 69%
    12:00 +2°C° 0.3 mm 2 mps 725 mmHg 70%
    13:00 +2°C° 0.3 mm 2 mps 725 mmHg 72%
    14:00 +2°C° 0.3 mm 2 mps 724 mmHg 74%
    15:00 +1°C° 0.3 mm 2 mps 724 mmHg 75%
    16:00 +1°C° 0.3 mm 2 mps 725 mmHg 79%
    17:00 +1°C° 0.3 mm 1 mps 725 mmHg 82%
    18:00 +1°C° 0.3 mm 1 mps 725 mmHg 86%
    19:00 +1°C° 0.3 mm 1 mps 725 mmHg 88%
    20:00 0°C° 0.3 mm 1 mps 726 mmHg 89%
    21:00 0°C° 0.3 mm 1 mps 726 mmHg 91%
    22:00 0°C° 0.3 mm 1 mps 726 mmHg 93%
    23:00 0°C° 0.3 mm 1 mps 726 mmHg 94%

    28 January, Saturday

    Time Temperature Precipitation Wind Pressure Humidity
    00:00 -1°C° 0.3 mm 1 mps 726 mmHg 95%
    01:00 -1°C° 0.3 mm 1 mps 726 mmHg 95%
    02:00 -1°C° 0.3 mm 1 mps 725 mmHg 96%
    03:00 -1°C° 0.3 mm 1 mps 725 mmHg 96%
    04:00 -1°C° 0.3 mm 1 mps 725 mmHg 96%
    05:00 -1°C° 0.3 mm 1 mps 725 mmHg 96%
    06:00 -1°C° 0.3 mm 1 mps 725 mmHg 97%
    07:00 -1°C° 0.4 mm 1 mps 725 mmHg 95%
    08:00 -1°C° 0.4 mm 1 mps 725 mmHg 94%
    09:00 -1°C° 0.4 mm 1 mps 726 mmHg 93%
    10:00 -2°C° 0.4 mm 2 mps 725 mmHg 92%
    11:00 -2°C° 0.4 mm 2 mps 725 mmHg 92%
    12:00 -1°C° 0.4 mm 2 mps 725 mmHg 91%
    13:00 -1°C° 0.3 mm 2 mps 724 mmHg 91%
    14:00 -1°C° 0.3 mm 2 mps 724 mmHg 91%
    15:00 -1°C° 0.3 mm 2 mps 723 mmHg 92%
    16:00 -2°C° 0.4 mm 2 mps 724 mmHg 93%
    17:00 -2°C° 0.4 mm 2 mps 724 mmHg 94%
    18:00 -2°C° 0.4 mm 2 mps 725 mmHg 95%
    19:00 -3°C° 0.4 mm 2 mps 725 mmHg 95%
    20:00 -3°C° 0.4 mm 2 mps 725 mmHg 95%
    21:00 -3°C° 0.4 mm 2 mps 725 mmHg 95%
    22:00 -3°C° 0.3 mm 2 mps 725 mmHg 95%
    23:00 -3°C° 0.3 mm 2 mps 725 mmHg 94%

    29 January, Sunday

    Time Temperature Precipitation Wind Pressure Humidity
    00:00 -3°C° 0.3 mm 2 mps 725 mmHg 94%
    01:00 -4°C° 0.1 mm 2 mps 725 mmHg 93%
    02:00 -4°C° 0.1 mm 2 mps 725 mmHg 91%
    03:00 -5°C° 0.1 mm 3 mps 725 mmHg 90%
    04:00 -6°C° 0 mm 3 mps 725 mmHg 89%
    05:00 -6°C° 0 mm 3 mps 725 mmHg 87%
    06:00 -7°C° 0 mm 3 mps 726 mmHg 86%
    07:00 -6°C° 0 mm 3 mps 726 mmHg 84%
    08:00 -5°C° 0 mm 3 mps 727 mmHg 81%
    09:00 -4°C° 0 mm 3 mps 727 mmHg 79%
    10:00 -2°C° 0 mm 3 mps 727 mmHg 77%
    11:00 -1°C° 0 mm 3 mps 727 mmHg 75%
    12:00 -2°C° 0 mm 4 mps 727 mmHg 74%
    13:00 -1°C° 0 mm 3 mps 726 mmHg 74%
    14:00 0°C° 0 mm 3 mps 726 mmHg 74%
    15:00 0°C° 0 mm 3 mps 726 mmHg 74%
    16:00 -2°C° 0 mm 2 mps 726 mmHg 76%
    17:00 -4°C° 0 mm 2 mps 727 mmHg 78%
    18:00 -4°C° 0 mm 1 mps 727 mmHg 81%
    19:00 -4°C° 0 mm 1 mps 728 mmHg 80%
    20:00 -4°C° 0 mm 1 mps 728 mmHg 79%
    21:00 -4°C° 0 mm 1 mps 728 mmHg 77%
    22:00 -6°C° 0 mm 2 mps 728 mmHg 77%
    23:00 -5°C° 0 mm 2 mps 729 mmHg 77%

    30 January, Monday

    Time Temperature Precipitation Wind Pressure Humidity
    00:00 -5°C° 0 mm 2 mps 729 mmHg 77%
    01:00 -6°C° 0 mm 2 mps 729 mmHg 78%
    02:00 -6°C° 0 mm 2 mps 729 mmHg 80%
    03:00 -6°C° 0 mm 2 mps 730 mmHg 82%
    04:00 -7°C° 0 mm 2 mps 730 mmHg 82%
    05:00 -7°C° 0 mm 2 mps 730 mmHg 83%
    06:00 -7°C° 0 mm 2 mps 730 mmHg 83%
    07:00 -6°C° 0 mm 2 mps 731 mmHg 80%
    08:00 -5°C° 0 mm 2 mps 731 mmHg 77%
    09:00 -4°C° 0 mm 2 mps 731 mmHg 74%
    10:00 -4°C° 0 mm 3 mps 731 mmHg 71%
    11:00 -2°C° 0 mm 3 mps 730 mmHg 68%
    12:00 -1°C° 0 mm 3 mps 729 mmHg 65%
    13:00 -1°C° 0 mm 3 mps 729 mmHg 65%
    14:00 -1°C° 0 mm 3 mps 728 mmHg 66%
    15:00 -1°C° 0 mm 3 mps 728 mmHg 66%
    16:00 -4°C° 0 mm 2 mps 728 mmHg 69%
    17:00 -6°C° 0 mm 2 mps 728 mmHg 73%
    18:00 -9°C° 0 mm 2 mps 728 mmHg 76%
    19:00 -9°C° 0 mm 2 mps 728 mmHg 77%
    20:00 -9°C° 0 mm 2 mps 728 mmHg 77%
    21:00 -9°C° 0 mm 2 mps 728 mmHg 77%
    22:00 -9°C° 0 mm 2 mps 728 mmHg 76%
    23:00 -9°C° 0 mm 2 mps 728 mmHg 76%
    Show more